Regional Weather Roundup
Issued by NWS

Home | Current Version | Previous Version | Text Only | Print | Product List | Glossary Off
Versions: 1 2 3 4 5 6 7 8 9 10 11 12 13 14 15 16 17 18 19 20 21 22 23 24 25 26 27 28 29 30 31 32 33 34 35 36 37 38 39 40 41 42 43 44 45 46 47 48 49 50

000
ASUS43 KLSX 161359
RWRMO

WEATHER SUMMARY FOR MISSOURI
NATIONAL WEATHER SERVICE SPRINGFIELD MO
900 AM CDT TUE SEP 16 2014

NOTE: "FAIR" INDICATES FEW OR NO CLOUDS BELOW 12,000 FEET WITH NO
       SIGNIFICANT WEATHER AND/OR OBSTRUCTIONS TO VISIBILITY.
       CURRENT SKY AND/OR WEATHER CONDITIONS ARE NOT AVAILABLE FOR
       CHILLICOTHE AND FARMINGTON.

MOZ001>031-035>038-043-044-053-054-161500-
...NORTHERN AND WESTERN MISSOURI...

CITY           SKY/WX    TMP DP  RH WIND       PRES   REMARKS
KANSAS CTY INT SUNNY     53  49  86 E5        30.24F
KANSAS C DTWN  SUNNY     56  50  80 E3        30.25S
LEE`S SUMMIT   SUNNY     54  50  86 NE8       30.25S
ST JOSEPH      SUNNY     49  49 100 CALM      30.25F
KIRKSVILLE     SUNNY     54  49  83 NE5       30.26S

$$
MOZ066>068-077>081-088>096-101>105-161500-
...SOUTHWEST MISSOURI...

CITY           SKY/WX    TMP DP  RH WIND       PRES   REMARKS
SPRINGFIELD    CLOUDY    64  57  78 NE7       30.19S
JOPLIN         CLOUDY    59  57  93 NE9       30.20S

$$
MOZ032>034-039>042-045>050-055>058-069>072-161500-
...CENTRAL MISSOURI...

CITY           SKY/WX    TMP DP  RH WIND       PRES   REMARKS
COLUMBIA       CLOUDY    55  50  83 NE8       30.24S
JEFFERSON CITY CLOUDY    57  51  80 NE5       30.24S
ROLLA          FOG       56  55  97 NE6       30.21S VSB 3/4
SEDALIA        CLOUDY    58  52  80 E7        30.24S
OSAGE BEACH    CLOUDY    57  54  88 E6        30.23R

$$
MOZ051-052-059>065-161500-
...EAST CENTRAL MISSOURI...

CITY           SKY/WX    TMP DP  RH WIND       PRES   REMARKS
ST LOUIS INTL  CLOUDY    59  54  83 E5        30.23S
SPIRIT OF STL  PTSUNNY   59  55  87 NE6       30.22S FOG
ST CHARLES     CLOUDY    57  54  89 E5        30.22S

$$
MOZ072>076-082>087-097>100-106>115-161500-
...SOUTH CENTRAL AND SOUTHEAST MISSOURI...

CITY           SKY/WX    TMP DP  RH WIND       PRES   REMARKS
CAPE GIRARDEAU CLOUDY    62  55  77 NE10      30.19R
FARMINGTON     CLOUDY    57  54  88 N6        30.24R
POPLAR BLUFF   CLOUDY    63  54  72 NE12      30.17R
WEST PLAINS    CLOUDY    62  56  80 NE8       30.21R

$$



USA.gov is the U.S. government's official web portal to all federal, state and local government web resources and services.